DW3765 Weather Reports


Display with metric or nautical units.
time (UTC)temp
F
wind
direction
speed
MPH
gust
MPH
rain 1hr
in
rain 24hr
in
rain mn
in
humidity
%
barometer
mb
20260902204131 98 86 3.0 9.0 0.00 0.00 0.00 39 1013.1
20260902203652 98 67 4.0 9.0 0.00 0.00 0.00 40 1013.2
20260902202633 98 154 6.0 10.0 0.00 0.00 0.00 39 1013.3
20260902202155 98 120 4.0 9.0 0.00 0.00 0.00 40 1013.3
20260902201134 97 90 2.0 6.0 0.00 0.00 0.00 40 1013.5
20260902200656 97 294 2.0 5.0 0.00 0.00 0.00 41 1013.7
20260902200207 97 232 2.0 7.0 0.00 0.00 0.00 40 1013.8
20260902195729 97 232 4.0 10.0 0.00 0.00 0.00 42 1014.0
20260902195200 97 194 6.0 10.0 0.00 0.00 0.00 41 1014.0
20260902194654 96 145 5.0 10.0 0.00 0.00 0.00 44 1014.1
20260902194145 96 49 3.0 10.0 0.00 0.00 0.00 42 1014.1
20260902193657 96 159 6.0 10.0 0.00 0.00 0.00 43 1014.4
20260902193205 96 144 3.0 10.0 0.00 0.00 0.00 42 1014.4
20260902192730 96 209 5.0 10.0 0.00 0.00 0.00 43 1014.5
20260902192219 96 243 5.0 9.0 0.00 0.00 0.00 44 1014.5
20260902191639 96 227 4.0 9.0 0.00 0.00 0.00 45 1014.5
20260902191158 96 256 5.0 9.0 0.00 0.00 0.00 44 1014.7
20260902190714 96 272 4.0 8.0 0.00 0.00 0.00 45 1014.7
20260902190218 96 236 3.0 8.0 0.00 0.00 0.00 44 1014.8
20260902185626 96 102 2.0 8.0 0.00 0.00 0.00 47 1015.0
20260902185141 96 151 5.0 8.0 0.00 0.00 0.00 44 1015.0
20260902184702 96 126 2.0 11.0 0.00 0.00 0.00 47 1015.1
20260902184158 95 220 7.0 11.0 0.00 0.00 0.00 47 1015.2
20260902183639 95 306 2.0 10.0 0.00 0.00 0.00 47 1015.3
20260902183152 95 221 5.0 11.0 0.00 0.00 0.00 47 1015.5
20260902182143 95 208 3.0 10.0 0.00 0.00 0.00 46 1015.6
20260902181653 95 205 5.0 10.0 0.00 0.00 0.00 50 1015.7
20260902180631 95 167 4.0 11.0 0.00 0.00 0.00 47 1015.8
20260902180243 94 180 4.0 11.0 0.00 0.00 0.00 50 1015.9
20260902175630 94 132 4.0 11.0 0.00 0.00 0.00 52 1016.1
20260902175142 93 234 4.0 9.0 0.00 0.00 0.00 49 1016.1
20260902174704 94 109 4.0 10.0 0.00 0.00 0.00 50 1016.2
20260902174219 94 211 6.0 11.0 0.00 0.00 0.00 50 1016.2
20260902173722 93 241 4.0 11.0 0.00 0.00 0.00 51 1016.3
20260902173131 93 194 1.0 11.0 0.00 0.00 0.00 53 1016.4
20260902172644 93 248 4.0 9.0 0.00 0.00 0.00 52 1016.6
20260902172123 93 229 6.0 9.0 0.00 0.00 0.00 52 1016.6
20260902171644 93 238 2.0 7.0 0.00 0.00 0.00 53 1016.6
20260902171157 93 134 2.0 7.0 0.00 0.00 0.00 55 1016.8
20260902170653 92 269 3.0 7.0 0.00 0.00 0.00 55 1016.8
20260902170212 92 252 4.0 8.0 0.00 0.00 0.00 52 1016.8
20260902165700 91 150 2.0 10.0 0.00 0.00 0.00 55 1016.8
20260902165209 91 209 2.0 8.0 0.00 0.00 0.00 56 1016.9
20260902164722 91 289 3.0 8.0 0.00 0.00 0.00 56 1016.9
20260902164218 90 234 6.0 10.0 0.00 0.00 0.00 56 1016.8
20260902163743 90 197 4.0 10.0 0.00 0.00 0.00 59 1016.8
20260902163237 89 163 5.0 10.0 0.00 0.00 0.00 60 1016.9
20260902162634 89 259 2.0 9.0 0.00 0.00 0.00 62 1017.0
20260902162157 88 258 5.0 11.0 0.00 0.00 0.00 61 1017.1
20260902161722 88 225 6.0 11.0 0.00 0.00 0.00 61 1017.1
20260902161213 88 248 3.0 9.0 0.00 0.00 0.00 66 1017.0
20260902160729 87 260 6.0 9.0 0.00 0.00 0.00 64 1016.9
20260902160122 87 209 5.0 8.0 0.00 0.00 0.00 67 1017.1
20260902155633 87 235 5.0 9.0 0.00 0.00 0.00 67 1017.0
20260902155156 87 198 4.0 10.0 0.00 0.00 0.00 69 1017.1
20260902154645 86 224 6.0 10.0 0.00 0.00 0.00 69 1017.0
20260902154157 86 225 5.0 9.0 0.00 0.00 0.00 69 1017.0
20260902153157 85 205 5.0 12.0 0.00 0.00 0.00 71 1017.0
20260902152709 85 234 7.0 12.0 0.00 0.00 0.00 72 1017.0
20260902152129 85 250 7.0 13.0 0.00 0.00 0.00 71 1017.0
20260902151736 85 238 7.0 13.0 0.00 0.00 0.00 72 1017.0
20260902151126 85 221 3.0 12.0 0.00 0.00 0.00 73 1017.1
20260902150656 84 243 7.0 12.0 0.00 0.00 0.00 73 1017.1
20260902150236 84 250 5.0 12.0 0.00 0.00 0.00 76 1017.1
20260902145718 84 213 4.0 10.0 0.00 0.00 0.00 76 1017.2
20260902145210 83 202 4.0 10.0 0.00 0.00 0.00 77 1017.2
20260902144701 83 236 6.0 12.0 0.00 0.00 0.00 78 1017.1
20260902144145 83 167 6.0 11.0 0.00 0.00 0.00 78 1017.0
20260902143655 82 231 3.0 9.0 0.00 0.00 0.00 81 1017.1
20260902143206 82 242 4.0 9.0 0.00 0.00 0.00 82 1017.1
20260902142708 82 238 3.0 6.0 0.00 0.00 0.00 82 1017.2
20260902142219 81 234 3.0 7.0 0.00 0.00 0.00 82 1017.1
20260902141153 81 227 2.0 6.0 0.00 0.00 0.00 84 1017.1
20260902140708 80 209 0.0 0.0 0.00 0.00 0.00 85 1017.1
20260902140209 80 209 0.0 0.0 0.00 0.00 0.00 85 1017.0
20260902135706 79 209 0.0 0.0 0.00 0.00 0.00 86 1017.1
20260902135203 79 209 0.0 0.0 0.00 0.00 0.00 86 1017.0
20260902134722 78 208 0.0 0.0 0.00 0.00 0.00 86 1017.0
20260902134242 78 208 0.0 0.0 0.00 0.00 0.00 87 1017.2
20260902133636 77 208 0.0 0.0 0.00 0.00 0.00 87 1017.0
20260902133154 77 208 0.0 0.0 0.00 0.00 0.00 88 1017.0
20260902132700 77 208 0.0 0.0 0.00 0.00 0.00 89 1016.9
20260902132221 76 208 0.0 0.0 0.00 0.00 0.00 91 1016.9
20260902131631 75 208 0.0 0.0 0.00 0.00 0.00 91 1016.8
20260902131156 75 208 0.0 0.0 0.00 0.00 0.00 92 1016.8
20260902130713 74 208 0.0 0.0 0.00 0.00 0.00 92 1016.7
20260902130140 74 208 0.0 0.0 0.00 0.00 0.00 92 1016.7
20260902125650 73 208 0.0 0.0 0.00 0.00 0.00 91 1016.6
20260902125148 73 208 0.0 0.0 0.00 0.00 0.00 91 1016.6
20260902124700 73 208 0.0 0.0 0.00 0.00 0.00 90 1016.6
20260902124215 73 208 0.0 0.0 0.00 0.00 0.00 90 1016.5
20260902123624 73 208 0.0 0.0 0.00 0.00 0.00 89 1016.5
20260902123152 73 208 0.0 0.0 0.00 0.00 0.00 88 1016.5
20260902122643 73 208 0.0 0.0 0.00 0.00 0.00 88 1016.3
20260902122156 73 208 0.0 0.0 0.00 0.00 0.00 88 1016.3
20260902121151 73 208 0.0 0.0 0.00 0.00 0.00 89 1016.3
20260902120226 74 208 0.0 0.0 0.00 0.00 0.00 88 1016.2
20260902115623 74 208 0.0 0.0 0.00 0.00 0.00 88 1016.2
20260902115140 74 208 0.0 0.0 0.00 0.00 0.00 88 1016.1
20260902114706 74 208 0.0 0.0 0.00 0.00 0.00 88 1016.2
20260902114220 74 208 0.0 0.0 0.00 0.00 0.00 88 1016.2
20260902113716 74 208 0.0 0.0 0.00 0.00 0.00 87 1016.2
20260902113134 74 208 0.0 0.0 0.00 0.00 0.00 87 1016.0
20260902112647 74 208 0.0 0.0 0.00 0.00 0.00 87 1015.9
20260902111640 74 208 0.0 0.0 0.00 0.00 0.00 86 1016.0
20260902111241 74 208 0.0 0.0 0.00 0.00 0.00 86 1016.0
20260902110715 74 208 0.0 0.0 0.00 0.00 0.00 86 1016.1
20260902110212 75 208 0.0 0.0 0.00 0.00 0.00 85 1016.0
20260902105711 75 208 0.0 0.0 0.00 0.00 0.00 85 1016.0
20260902105207 75 208 0.0 1.0 0.00 0.00 0.00 85 1016.1
20260902104704 75 208 0.0 1.0 0.00 0.00 0.00 85 1015.9
20260902104206 75 208 0.0 0.0 0.00 0.00 0.00 85 1016.0
20260902103657 75 208 0.0 0.0 0.00 0.00 0.00 85 1016.0
20260902102645 75 208 0.0 0.0 0.00 0.00 0.00 83 1016.0
20260902102156 75 208 0.0 1.0 0.00 0.00 0.00 84 1015.9
20260902101650 76 208 0.0 1.0 0.00 0.00 0.00 84 1015.9
20260902101150 76 208 0.0 4.0 0.00 0.00 0.00 84 1015.9
20260902100702 76 208 0.0 4.0 0.00 0.00 0.00 84 1015.9
20260902100200 76 138 0.0 0.0 0.00 0.00 0.00 83 1016.0
20260902095147 76 138 0.0 0.0 0.00 0.00 0.00 83 1016.0
20260902094639 76 138 0.0 0.0 0.00 0.00 0.00 83 1016.0
20260902094202 76 138 0.0 0.0 0.00 0.00 0.00 82 1016.0
20260902093137 76 138 0.0 0.0 0.00 0.00 0.00 81 1016.0
20260902092134 77 138 0.0 0.0 0.00 0.00 0.00 80 1016.1
20260902091647 77 138 0.0 0.0 0.00 0.00 0.00 80 1016.2
20260902090626 77 138 0.0 4.0 0.00 0.00 0.00 80 1016.1
20260902090230 77 138 1.0 4.0 0.00 0.00 0.00 80 1016.1
20260902085722 77 137 2.0 4.0 0.00 0.00 0.00 79 1016.1
20260902085141 77 137 2.0 5.0 0.00 0.00 0.00 79 1016.1
20260902084654 77 134 0.0 5.0 0.00 0.00 0.00 79 1016.2
20260902083646 78 138 3.0 4.0 0.00 0.00 0.00 78 1016.3
20260902083142 78 138 0.0 0.0 0.00 0.00 0.00 78 1016.2
20260902082655 78 138 0.0 2.0 0.00 0.00 0.00 78 1016.3
20260902082215 78 138 0.0 2.0 0.00 0.00 0.00 78 1016.3
20260902081624 78 138 0.0 2.0 0.00 0.00 0.00 77 1016.3
20260902081151 78 138 1.0 2.0 0.00 0.00 0.00 77 1016.3
20260902080705 78 138 1.0 5.0 0.00 0.00 0.00 77 1016.4
20260902080215 78 138 2.0 5.0 0.00 0.00 0.00 77 1016.4
20260902075634 78 148 2.0 6.0 0.00 0.00 0.00 77 1016.4
20260902075235 78 150 3.0 6.0 0.00 0.00 0.00 77 1016.4
20260902074623 78 128 2.0 5.0 0.00 0.00 0.00 77 1016.5
20260902074150 78 145 3.0 5.0 0.00 0.00 0.00 77 1016.5
20260902073645 79 148 3.0 5.0 0.00 0.00 0.00 76 1016.5
20260902073158 79 149 2.0 5.0 0.00 0.00 0.00 76 1016.4
20260902072623 79 148 2.0 5.0 0.00 0.00 0.00 75 1016.3
20260902072201 79 121 2.0 4.0 0.00 0.00 0.00 75 1016.3
20260902071650 80 121 2.0 2.0 0.00 0.00 0.00 74 1016.3
20260902071149 80 121 1.0 6.0 0.00 0.00 0.00 74 1016.4
20260902070145 80 145 3.0 7.0 0.00 0.00 0.00 73 1016.3
20260902065626 80 112 5.0 7.0 0.00 0.00 0.00 73 1016.3
20260902065151 80 109 4.0 8.0 0.00 0.00 0.00 73 1016.3
20260902064639 80 101 5.0 8.0 0.00 0.00 0.00 73 1016.3
20260902064138 80 121 4.0 6.0 0.00 0.00 0.00 73 1016.4
20260902063645 81 121 3.0 5.0 0.00 0.00 0.00 72 1016.5
20260902063139 81 142 3.0 6.0 0.00 0.00 0.00 72 1016.5
20260902062646 81 146 2.0 6.0 0.00 0.00 0.00 72 1016.4
20260902062130 81 135 3.0 6.0 0.00 0.00 0.00 71 1016.5
20260902061124 81 126 4.0 6.0 0.00 0.00 0.00 71 1016.4
20260902060651 81 121 2.0 5.0 0.00 0.00 0.00 71 1016.4
20260902060128 81 134 3.0 5.0 0.00 0.00 0.00 70 1016.3
20260902055635 81 132 3.0 6.0 0.00 0.00 0.00 70 1016.3
20260902055137 81 139 4.0 7.0 0.00 0.00 0.00 70 1016.3
20260902054645 82 95 5.0 7.0 0.00 0.00 0.00 70 1016.3
20260902054147 82 90 3.0 5.0 0.00 0.00 0.00 70 1016.2
20260902053625 82 139 2.0 5.0 0.00 0.00 0.00 70 1016.1
20260902053127 82 145 1.0 4.0 0.00 0.00 0.00 69 1016.2
20260902052635 82 145 1.0 3.0 0.00 0.00 0.00 69 1016.2
20260902052140 82 145 1.0 4.0 0.00 0.00 0.00 69 1016.2
20260902051638 83 145 1.0 4.0 0.00 0.00 0.00 69 1016.1
20260902051124 83 144 1.0 5.0 0.00 0.00 0.00 69 1016.1
20260902050653 83 144 3.0 6.0 0.00 0.00 0.00 68 1016.1
20260902050136 83 144 3.0 6.0 0.00 0.00 0.00 68 1016.1
20260902045629 83 136 4.0 7.0 0.00 0.00 0.00 68 1016.1
20260902045241 83 111 4.0 7.0 0.00 0.00 0.00 67 1016.1
20260902044710 83 121 2.0 7.0 0.00 0.00 0.00 67 1016.1
20260902044200 84 142 3.0 8.0 0.00 0.00 0.00 67 1016.0
20260902043657 84 115 4.0 8.0 0.00 0.00 0.00 67 1016.0
20260902043151 84 133 5.0 7.0 0.00 0.00 0.00 66 1015.9
20260902042650 84 136 4.0 7.0 0.00 0.00 0.00 66 1015.9
20260902041637 85 118 3.0 8.0 0.00 0.00 0.00 65 1015.8
20260902041134 85 160 5.0 9.0 0.00 0.00 0.00 64 1015.7
20260902040655 85 103 5.0 9.0 0.00 0.00 0.00 64 1015.8
20260902040129 85 116 5.0 11.0 0.00 0.00 0.00 63 1015.8
20260902035653 85 125 7.0 11.0 0.00 0.00 0.00 63 1015.7
20260902035204 86 125 6.0 11.0 0.00 0.00 0.00 62 1015.8
20260902034721 86 103 6.0 14.0 0.00 0.00 0.00 61 1015.7
20260902034140 86 140 5.0 9.0 0.00 0.00 0.00 60 1015.7
20260902033654 86 115 6.0 9.0 0.00 0.00 0.00 59 1015.7
20260902033210 87 101 5.0 8.0 0.00 0.00 0.00 58 1015.5
20260902032719 87 125 3.0 8.0 0.00 0.00 0.00 58 1015.5
20260902032130 87 115 5.0 8.0 0.00 0.00 0.00 57 1015.3
20260902031656 87 126 3.0 7.0 0.00 0.00 0.00 57 1015.2
20260902031208 87 117 5.0 10.0 0.00 0.00 0.00 57 1015.2
20260902030624 87 127 4.0 12.0 0.00 0.00 0.00 57 1015.1
20260902030147 87 75 5.0 10.0 0.00 0.00 0.00 57 1015.1
20260902025700 87 100 5.0 9.0 0.00 0.00 0.00 57 1015.0
20260902024628 87 80 6.0 9.0 0.00 0.00 0.00 57 1014.7
20260902024143 87 89 5.0 8.0 0.00 0.00 0.00 57 1014.7
20260902023704 88 76 5.0 9.0 0.00 0.00 0.00 57 1014.6
20260902023221 88 72 3.0 8.0 0.00 0.00 0.00 57 1014.5
20260902022629 88 116 4.0 8.0 0.00 0.00 0.00 57 1014.5
20260902022151 88 77 4.0 8.0 0.00 0.00 0.00 56 1014.4
20260902021707 88 89 4.0 8.0 0.00 0.00 0.00 56 1014.3
20260902021225 89 132 5.0 8.0 0.00 0.00 0.00 56 1014.2
20260902020714 89 82 3.0 8.0 0.00 0.00 0.00 56 1014.2
20260902015645 89 84 4.0 7.0 0.00 0.00 0.00 55 1014.0
20260902015153 89 78 4.0 8.0 0.00 0.00 0.00 55 1014.0
20260902014651 89 80 5.0 8.0 0.00 0.00 0.00 54 1013.8
20260902014233 89 92 5.0 7.0 0.00 0.00 0.00 54 1013.8
20260902013709 89 79 4.0 6.0 0.00 0.00 0.00 54 1013.8
20260902013204 90 80 4.0 6.0 0.00 0.00 0.00 53 1013.8
20260902012711 90 84 4.0 7.0 0.00 0.00 0.00 53 1013.9
20260902012204 90 88 4.0 7.0 0.00 0.00 0.00 52 1013.7
20260902011700 90 64 4.0 7.0 0.00 0.00 0.00 52 1013.6
20260902011208 91 82 4.0 6.0 0.00 0.00 0.00 51 1013.5
20260902010708 91 88 4.0 6.0 0.00 0.00 0.00 50 1013.5
20260902010222 92 80 4.0 7.0 0.00 0.00 0.00 49 1013.5
20260902005629 92 81 4.0 6.0 0.00 0.00 0.00 48 1013.5
20260902005157 93 80 3.0 4.0 0.00 0.00 0.00 47 1013.4
20260902004647 93 80 2.0 4.0 0.00 0.00 0.00 46 1013.3
20260902003637 94 80 2.0 5.0 0.00 0.00 0.00 46 1013.4
20260902003156 94 77 3.0 5.0 0.00 0.00 0.00 45 1013.5
20260902002718 94 74 3.0 6.0 0.00 0.00 0.00 45 1013.5
20260902002131 94 84 3.0 9.0 0.00 0.00 0.00 44 1013.4
20260902001647 95 74 5.0 9.0 0.00 0.00 0.00 43 1013.5
20260902000636 95 95 3.0 7.0 0.00 0.00 0.00 43 1013.5
20260902000152 95 92 3.0 7.0 0.00 0.00 0.00 43 1013.5
20260901235720 96 85 4.0 8.0 0.00 0.00 0.00 43 1013.5
20260901235215 96 105 5.0 10.0 0.00 0.00 0.00 43 1013.5
20260901234709 96 129 5.0 10.0 0.00 0.00 0.00 42 1013.4
20260901234124 96 132 4.0 9.0 0.00 0.00 0.00 42 1013.4
20260901233639 96 47 3.0 7.0 0.00 0.00 0.00 42 1013.4
20260901233203 97 90 1.0 7.0 0.00 0.00 0.00 41 1013.5
20260901232716 97 83 4.0 8.0 0.00 0.00 0.00 41 1013.5
20260901232128 97 114 4.0 7.0 0.00 0.00 0.00 39 1013.4
20260901231652 97 126 4.0 7.0 0.00 0.00 0.00 40 1013.5
20260901231148 97 205 2.0 7.0 0.00 0.00 0.00 40 1013.4
20260901230142 97 67 2.0 6.0 0.00 0.00 0.00 39 1013.4
20260901225656 97 127 1.0 6.0 0.00 0.00 0.00 39 1013.5
20260901224641 97 138 0.0 5.0 0.00 0.00 0.00 41 1013.6
20260901224156 97 138 3.0 5.0 0.00 0.00 0.00 40 1013.7
20260901223720 96 78 1.0 9.0 0.00 0.00 0.00 40 1013.7
20260901223131 96 78 5.0 9.0 0.00 0.00 0.00 41 1013.6
20260901222643 97 60 3.0 8.0 0.00 0.00 0.00 40 1013.6
20260901221634 97 201 1.0 6.0 0.00 0.00 0.00 41 1013.5
20260901221152 97 157 3.0 10.0 0.00 0.00 0.00 41 1013.6
20260901220710 97 230 5.0 10.0 0.00 0.00 0.00 42 1013.6
20260901220207 97 144 2.0 8.0 0.00 0.00 0.00 42 1013.7
20260901215720 97 151 5.0 8.0 0.00 0.00 0.00 42 1013.7
20260901215216 97 140 2.0 7.0 0.00 0.00 0.00 42 1013.7
20260901214635 97 160 4.0 7.0 0.00 0.00 0.00 41 1013.8
20260901214134 97 111 2.0 9.0 0.00 0.00 0.00 42 1013.7
20260901213642 97 100 4.0 10.0 0.00 0.00 0.00 42 1013.9
20260901213206 97 161 3.0 10.0 0.00 0.00 0.00 41 1013.9
20260901212657 97 56 5.0 8.0 0.00 0.00 0.00 41 1013.9
20260901212158 97 218 1.0 9.0 0.00 0.00 0.00 42 1014.0
20260901211655 96 81 5.0 9.0 0.00 0.00 0.00 42 1014.1
20260901211202 96 186 2.0 6.0 0.00 0.00 0.00 42 1014.1
20260901210634 96 5 1.0 8.0 0.00 0.00 0.00 42 1014.2
20260901210158 95 104 5.0 8.0 0.00 0.00 0.00 43 1014.2
20260901205712 95 98 2.0 9.0 0.00 0.00 0.00 44 1014.2
20260901205215 95 86 6.0 11.0 0.00 0.00 0.00 42 1014.4
20260901204709 95 88 3.0 11.0 0.00 0.00 0.00 44 1014.5